Weather History for Sanford, ME

Change the Weather History Date:

Wednesday, February 13, 2013

  Actual Average Record
Temperature  
Mean Temperature 29 °F -  
Max Temperature 39 °F 31 °F 44 °F (1999)
Min Temperature 19 °F 12 °F -5 °F (2007)
Degree Days  
Heating Degree Days 36    
Moisture  
Dew Point 18 °F    
Average Humidity 61    
Maximum Humidity 100    
Minimum Humidity 41    
Precipitation  
Precipitation 0.00 in - - ()
Sea Level Pressure  
Sea Level Pressure 29.77 in    
Wind  
Wind Speed 6 mph (West)    
Max Wind Speed 14 mph    
Max Gust Speed 21 mph    
Visibility 10 miles    
Events      
Averages and records for this station are not official NWS values.
T = Trace of Precipitation, MM = Missing Value Source: NWS Daily Summary

Daily Weather History Graph

Daily Weather History Graph

Search for Another Location

Airport:

Trip Planner

Search our weather history database for the weather conditions in past years. The results will help you decide how hot, cold, wet, or windy it might be!

Date:

Astronomy

Feb. 13, 2013 Rise Set
Actual Time 6:43 AM EST 5:11 PM EST
Civil Twilight 6:14 AM EST 5:40 PM EST
Nautical Twilight 5:40 AM EST 6:14 PM EST
Astronomical Twilight 5:07 AM EST 6:47 PM EST
Moon 8:03 AM EST (2/13) 9:19 PM EST (2/13)
Length of Visible Light 11h 26m
Length of Day
10h 27m
Waxing Crescent, 13% of the Moon is Illuminated
Feb 13
Waxing Crescent
Feb 17
First Quarter
Feb 25
Full
Mar 4
Last Quarter
Mar 11
New

Hourly Weather History & Observations

Time (EST) Temp. Windchill Dew Point Humidity Pressure Visibility Wind Dir Wind Speed Gust Speed Precip Events Conditions
12:15 AM 35.6 °F 28.6 °F 24.8 °F 65% 29.76 in 10.0 mi West 9.2 mph 17.3 mph N/A   Scattered Clouds
12:35 AM 33.8 °F 25.8 °F 21.2 °F 60% 29.77 in 10.0 mi West 10.4 mph 16.1 mph N/A   Clear
12:55 AM 33.8 °F 27.0 °F 19.4 °F 56% 29.77 in 10.0 mi WSW 8.1 mph - N/A   Clear
1:15 AM 33.8 °F 27.7 °F 19.4 °F 56% 29.78 in 10.0 mi West 6.9 mph - N/A   Clear
1:35 AM 33.8 °F 24.3 °F 21.2 °F 60% 29.76 in 10.0 mi West 13.8 mph 20.7 mph N/A   Clear
1:55 AM 33.8 °F 25.3 °F 23.0 °F 65% 29.76 in 10.0 mi West 11.5 mph - N/A   Clear
2:15 AM 33.8 °F - 19.4 °F 56% 29.77 in 10.0 mi Calm Calm - N/A   Clear
2:35 AM 32.0 °F 28.7 °F 17.6 °F 55% 29.76 in 10.0 mi West 3.5 mph - N/A   Clear
3:15 AM 32.0 °F 27.5 °F 21.2 °F 64% 29.77 in 10.0 mi WNW 4.6 mph - N/A   Mostly Cloudy
3:35 AM 30.2 °F 24.3 °F 17.6 °F 60% 29.77 in 10.0 mi NW 5.8 mph - N/A   Mostly Cloudy
3:55 AM 30.2 °F 24.3 °F 15.8 °F 55% 29.77 in 10.0 mi West 5.8 mph - N/A   Partly Cloudy
4:15 AM 30.2 °F 24.3 °F 21.2 °F 69% 29.78 in 10.0 mi West 5.8 mph - N/A   Clear
4:35 AM 30.2 °F 24.3 °F 19.4 °F 64% 29.78 in 10.0 mi West 5.8 mph - N/A   Clear
4:55 AM 28.4 °F 21.2 °F 15.8 °F 59% 29.79 in 10.0 mi SW 6.9 mph - N/A   Clear
5:15 AM 26.6 °F 21.2 °F 15.8 °F 64% 29.80 in 10.0 mi SW 4.6 mph - N/A   Partly Cloudy
5:35 AM 24.8 °F 19.1 °F 21.2 °F 86% 29.80 in 10.0 mi SW 4.6 mph - N/A   Clear
5:55 AM 23.0 °F 15.8 °F 14.0 °F 68% 29.80 in 10.0 mi SW 5.8 mph - N/A   Clear
6:15 AM 23.0 °F 18.4 °F 15.8 °F 74% 29.80 in 10.0 mi WSW 3.5 mph - N/A   Clear
6:35 AM 19.4 °F 11.5 °F 17.6 °F 93% 29.80 in 10.0 mi SSW 5.8 mph - N/A   Clear
7:15 AM 19.4 °F 12.8 °F 14.0 °F 80% 29.81 in 10.0 mi SSW 4.6 mph - N/A   Clear
7:35 AM 24.8 °F 16.9 °F 23.0 °F 93% 29.81 in 10.0 mi SSW 6.9 mph - N/A   Clear
7:55 AM 30.2 °F 26.7 °F 15.8 °F 55% 29.82 in 10.0 mi SSW 3.5 mph - N/A   Clear
8:15 AM 30.2 °F 25.4 °F 21.2 °F 69% 29.82 in 10.0 mi SSW 4.6 mph - N/A   Clear
8:35 AM 32.0 °F 24.2 °F 15.8 °F 51% 29.82 in 10.0 mi SW 9.2 mph - N/A   Clear
8:55 AM 33.8 °F 27.7 °F 17.6 °F 52% 29.82 in 10.0 mi SW 6.9 mph - N/A   Clear
9:15 AM 35.6 °F 30.7 °F 21.2 °F 56% 29.82 in 10.0 mi WNW 5.8 mph - N/A   Clear
9:35 AM 35.6 °F 29.2 °F 15.8 °F 44% 29.81 in 10.0 mi West 8.1 mph - N/A   Clear
9:55 AM 35.6 °F 28.0 °F 17.6 °F 48% 29.81 in 10.0 mi West 10.4 mph 16.1 mph N/A   Clear
10:15 AM 37.4 °F 28.9 °F 21.2 °F 52% 29.80 in 10.0 mi NW 13.8 mph 20.7 mph N/A   Clear
10:35 AM 35.6 °F 29.2 °F 21.2 °F 56% 29.81 in 10.0 mi NW 8.1 mph - N/A   Clear
10:55 AM 37.4 °F 32.1 °F 19.4 °F 48% 29.80 in 10.0 mi NNW 6.9 mph - N/A   Clear
11:15 AM 37.4 °F 32.1 °F 17.6 °F 45% 29.79 in 10.0 mi NW 6.9 mph - N/A   Clear
11:35 AM 37.4 °F 32.1 °F 19.4 °F 48% 29.78 in 10.0 mi NW 6.9 mph - N/A   Partly Cloudy
11:55 AM 37.4 °F 32.8 °F 19.4 °F 48% 29.78 in 10.0 mi NW 5.8 mph - N/A   Partly Cloudy
12:15 PM 37.4 °F 32.8 °F 19.4 °F 48% 29.77 in 10.0 mi North 5.8 mph - N/A   Scattered Clouds
12:35 PM 37.4 °F 33.8 °F 21.2 °F 52% 29.77 in 10.0 mi NW 4.6 mph - N/A   Mostly Cloudy
12:55 PM 39.2 °F 35.9 °F 19.4 °F 45% 29.77 in 10.0 mi SW 4.6 mph - N/A   Mostly Cloudy
1:15 PM 39.2 °F 32.5 °F 21.2 °F 49% 29.77 in 10.0 mi WSW 10.4 mph - N/A   Scattered Clouds
1:35 PM 39.2 °F 33.6 °F 21.2 °F 49% 29.76 in 10.0 mi West 8.1 mph - N/A   Partly Cloudy
1:55 PM 39.2 °F 32.5 °F 19.4 °F 45% 29.76 in 10.0 mi West 10.4 mph - N/A   Clear
2:15 PM 39.2 °F 34.2 °F 19.4 °F 45% 29.76 in 10.0 mi WNW 6.9 mph - N/A   Clear
2:35 PM 39.2 °F 33.0 °F 17.6 °F 42% 29.75 in 10.0 mi West 9.2 mph - N/A   Clear
2:55 PM 39.2 °F 33.6 °F 17.6 °F 42% 29.76 in 10.0 mi West 8.1 mph - N/A   Partly Cloudy
3:15 PM 39.2 °F 34.2 °F 17.6 °F 42% 29.74 in 10.0 mi WNW 6.9 mph - N/A   Scattered Clouds
3:35 PM 39.2 °F 34.2 °F 17.6 °F 42% 29.74 in 10.0 mi West 6.9 mph - N/A   Mostly Cloudy
3:55 PM 39.2 °F 35.0 °F 19.4 °F 45% 29.74 in 10.0 mi NW 5.8 mph - N/A   Overcast
4:15 PM 37.4 °F 31.4 °F 19.4 °F 48% 29.73 in 10.0 mi WNW 8.1 mph - N/A   Mostly Cloudy
4:35 PM 37.4 °F 32.1 °F 17.6 °F 45% 29.73 in 10.0 mi West 6.9 mph - N/A   Partly Cloudy
4:55 PM 37.4 °F 32.1 °F 15.8 °F 41% 29.73 in 10.0 mi WNW 6.9 mph - N/A   Clear
5:15 PM 35.6 °F 31.7 °F 15.8 °F 44% 29.74 in 10.0 mi West 4.6 mph - N/A   Clear
5:35 PM 33.8 °F 28.6 °F 15.8 °F 48% 29.75 in 10.0 mi WNW 5.8 mph - N/A   Clear
5:55 PM 33.8 °F 30.8 °F 15.8 °F 48% 29.74 in 10.0 mi WNW 3.5 mph - N/A   Clear
6:15 PM 28.4 °F 23.3 °F 15.8 °F 59% 29.74 in 10.0 mi NW 4.6 mph - N/A   Clear
6:35 PM 26.6 °F - 15.8 °F 64% 29.74 in 10.0 mi Calm Calm - N/A   Clear
6:55 PM 24.8 °F - 19.4 °F 80% 29.74 in 10.0 mi Calm Calm - N/A   Clear
7:15 PM 24.8 °F - 21.2 °F 86% 29.74 in 10.0 mi Calm Calm - N/A   Clear
7:35 PM 21.2 °F 16.4 °F 17.6 °F 86% 29.74 in 10.0 mi SW 3.5 mph - N/A   Clear
7:55 PM 21.2 °F 16.4 °F 12.2 °F 68% 29.74 in 10.0 mi WSW 3.5 mph - N/A   Clear
8:15 PM 23.0 °F - 15.8 °F 74% 29.74 in 10.0 mi Calm Calm - N/A   Clear
8:35 PM 23.0 °F - 19.4 °F 86% 29.74 in 10.0 mi Calm Calm - N/A   Clear
8:55 PM 21.2 °F - 19.4 °F 93% 29.73 in 10.0 mi Calm Calm - N/A   Clear
9:15 PM 19.4 °F 12.8 °F 10.4 °F 68% 29.74 in 10.0 mi WSW 4.6 mph - N/A   Clear
9:35 PM 21.2 °F - 14.0 °F 74% 29.74 in 10.0 mi Calm Calm - N/A   Partly Cloudy
9:55 PM 21.2 °F - 21.2 °F 100% 29.74 in 10.0 mi Calm Calm - N/A   Partly Cloudy
10:15 PM 19.4 °F - 10.4 °F 68% 29.74 in 10.0 mi Calm Calm - N/A   Clear
10:35 PM 19.4 °F - 15.8 °F 86% 29.73 in 10.0 mi Calm Calm - N/A   Clear
10:55 PM 21.2 °F - 21.2 °F 100% 29.72 in 10.0 mi Calm Calm - N/A   Clear
11:15 PM 23.0 °F - 12.2 °F 63% 29.72 in 10.0 mi Calm Calm - N/A   Scattered Clouds
11:35 PM 21.2 °F - 19.4 °F 93% 29.71 in 10.0 mi Calm Calm - N/A   Overcast
11:55 PM 28.4 °F 21.2 °F 12.2 °F 51% 29.71 in 10.0 mi North 6.9 mph - N/A   Overcast